Tracking 19795 objects as of 18-Jul-2019
HD Live streaming from Space Station
objects crossing your sky now

THORAD DELTA 1 DEB

Track THORAD DELTA 1 DEB now!
10-day predictions


NORAD ID: 42619
Int'l Code: 1974-089GL
Perigee: 984.7 km
Apogee: 1,267.8 km
Inclination: 102.1 °
Period: 107.7 minutes
Semi major axis: 7497 km
RCS: Unknown
Launch date: November 15, 1974
Source: United States (US)
Launch site: AIR FORCE WESTERN TEST RANGE (AFWTR)

Note: This is SATELLITE DEBRIS
aabbcc
Your satellite tracking list
Your tracking list is empty




NASA's NSSDC Master Catalog

Two Line Element Set (TLE):
1 42619U 74089GL  19198.56065736 +.00000391 +00000-0 +77905-3 0  9990
2 42619 102.0764 046.8572 0188814 262.1404 120.3168 13.37368930275676
Source of the keplerian elements: AFSPC